Flag for Ethiopia Weather past 2 weeks in Addis Ababa, Ethiopia

Now
66 °F

Scattered clouds.


Feels Like: 66 °F
Forecast: 48 / 67 °F
Wind: 2 mph from South

Location: Addis Ababa Airport

Current Time: Aug 21, 2014 at 5:33:33 PM

Latest Report: Aug 21, 2014 at 5:00 PM


Visibility: N/A

Pressure: 30.39 "Hg

Humidity: 73%

Dew point: 57 °F

Location of Addis AbabaLocation

Historic Weather in Addis Ababa — Graph

°F

Addis Ababa temperature yesterday

Maximum temperature yesterday: 68 °F (at 2:00 PM)
Minimum temperature yesterday: 55 °F (at 3:00 AM)
Average temperature yesterday: 60 °F

Past Weeks' High & Low Weather Summary

 TemperatureHumidityPressure
High70 °F (Aug 7, 3:00 PM)100% (Aug 6, 11:00 PM)30.45 "Hg (Aug 6, 11:00 PM)
Low54 °F (Aug 7, 4:00 AM)57% (Aug 14, 4:00 PM)30.24 "Hg (Aug 6, 4:00 PM)
Average60 °F80%30.33 "Hg
* Reported Aug 6 4:00 PM — Aug 21 4:00 PM, Addis Ababa, Weather by CustomWeather, © 2014

Note: Actual official high and low records may vary slightly from our data, if they occured in-between our weather recording intervals... More about our weather records

Advertising

Addis Ababa weather history for previous 24 hours

 ConditionsComfort  
Time TempWeatherWind HumidityBarometerVisibility
4:00 PM
Aug 21
66 °FScattered clouds.9 mph68%30.24 "HgN/A
3:00 PM66 °FScattered clouds.7 mph68%30.27 "HgN/A
2:00 PM61 °FBroken clouds.2 mph83%30.30 "HgN/A
1:00 PM59 °FBroken clouds.5 mph82%30.33 "HgN/A
12:00 PM59 °FLight rain. Mostly cloudy.2 mph82%30.36 "Hg6 mi
11:00 AM64 °FPartly sunny.9 mph64%30.36 "HgN/A
10:00 AM63 °FScattered clouds.9 mph68%30.36 "HgN/A
8:00 AM57 °FBroken clouds.9 mph88%30.36 "HgN/A
6:00 AM55 °FPassing clouds.2 mph88%30.33 "HgN/A
5:00 AM57 °FPassing clouds.9 mph82%30.30 "HgN/A
4:00 AM57 °FPassing clouds.7 mph88%30.30 "HgN/A
3:00 AM57 °FRain. Mostly cloudy.5 mph88%30.33 "Hg5 mi
2:30 AM57 °FRain showers. Mostly cloudy.5 mph88%30.30 "Hg4 mi
2:00 AM57 °FRain. Passing clouds.12 mph88%30.33 "Hg5 mi
1:00 AM59 °FPassing clouds.No wind82%30.30 "HgN/A
12:00 AM59 °FPassing clouds.2 mph82%30.33 "HgN/A
11:00 PM
Aug 20
57 °FPassing clouds.7 mph88%30.36 "HgN/A
10:00 PM57 °FPassing clouds.6 mph88%30.36 "HgN/A
9:00 PM59 °FPassing clouds.5 mph88%30.33 "HgN/A
8:00 PM61 °FPassing clouds.5 mph83%30.30 "HgN/A
7:00 PM63 °FPassing clouds.5 mph83%30.27 "HgN/A
5:00 PM64 °FPartly sunny.7 mph68%30.27 "Hg6 mi
Weather by CustomWeather, © 2014

See weather overviewHow to use our weather pages